Ft Riley, KS

2:51 AM CST on December 17, 2017 (GMT -0600)
Marshall Army Air Field

Weather History for KFRI - March, 2014

Change the Weather History Date:

Friday, March 28, 2014

  Actual Average (KMHK) Record (KMHK)
Temperature  
Mean Temperature 40 °F -  
Max Temperature 54 °F 60 °F 80 °F (2012)
Min Temperature 27 °F 34 °F 26 °F (2009)
Degree Days  
Heating Degree Days 25    
Moisture  
Dew Point 30 °F    
Average Humidity 69    
Maximum Humidity 96    
Minimum Humidity 44    
Precipitation  
Precipitation 0.00 in - - ()
Sea Level Pressure  
Sea Level Pressure 30.06 in    
Wind  
Wind Speed 4 mph (NNE)    
Max Wind Speed 8 mph    
Max Gust Speed -    
Visibility 10 miles    
Events Rain    
Averages and records for this station are not official NWS values.
T = Trace of Precipitation, MM = Missing Value Source: NWS Daily Summary

Daily Weather History Graph

Daily Weather History Graph

Search for Another Location

Airport or City:

Trip Planner

Search our weather history database for the weather conditions in past years. The results will help you decide how hot, cold, wet, or windy it might be!

Date:

Astronomy

Mar. 28, 2014 Rise Set
Actual Time 7:17 AM CDT 7:46 PM CDT
Civil Twilight 6:51 AM CDT 8:13 PM CDT
Nautical Twilight 6:19 AM CDT 8:45 PM CDT
Astronomical Twilight 5:47 AM CDT 9:17 PM CDT
Moon 5:48 AM CDT (3/28) 5:45 PM CDT (3/28)
Length of Visible Light 13h 22m
Length of Day
12h 29m
Waning Crescent, 6% of the Moon is Illuminated
Mar 28
Waning Crescent
Mar 30
New
Apr 7
First Quarter
Apr 15
Full
Apr 22
Last Quarter

Hourly Weather History & Observations

Time (CDT) Temp. Windchill Dew Point Humidity Pressure Visibility Wind Dir Wind Speed Gust Speed Precip Events Conditions
12:58 AM 36.9 °F 32.2 °F 28.4 °F 71% 29.90 in 10.0 mi North 5.8 mph - N/A   Clear
1:58 AM 34.9 °F 28.3 °F 27.9 °F 76% 29.91 in 10.0 mi North 8.1 mph - N/A   Clear
2:58 AM 32.5 °F - 27.1 °F 80% 29.93 in 10.0 mi North 1.2 mph - N/A   Clear
3:58 AM 31.5 °F 28.1 °F 27.9 °F 87% 29.96 in 10.0 mi WNW 3.5 mph - N/A   Clear
4:58 AM 29.5 °F - 26.2 °F 88% 29.99 in 10.0 mi Calm Calm - N/A   Clear
5:58 AM 30.6 °F - 26.1 °F 83% 30.01 in 10.0 mi Variable 2.3 mph - N/A   Clear
6:58 AM 27.3 °F 20.9 °F 26.2 °F 96% 30.01 in 10.0 mi NNE 5.8 mph - N/A   Clear
7:58 AM 29.8 °F 23.9 °F 27.0 °F 89% 30.03 in 10.0 mi NNE 5.8 mph - N/A   Clear
8:58 AM 33.1 °F 26.1 °F 29.3 °F 86% 30.05 in 10.0 mi NE 8.1 mph - N/A   Partly Cloudy
9:58 AM 35.4 °F 30.5 °F 28.4 °F 76% 30.06 in 10.0 mi NE 5.8 mph - N/A   Overcast
10:58 AM 39.6 °F - 28.6 °F 65% 30.14 in 10.0 mi North 2.3 mph - N/A   Mostly Cloudy
11:58 AM 40.1 °F 36.9 °F 28.9 °F 64% 30.14 in 10.0 mi WNW 4.6 mph - N/A   Mostly Cloudy
12:28 PM 41.0 °F - 28.4 °F 61% 30.11 in 10.0 mi Variable 2.3 mph - N/A   Mostly Cloudy
12:30 PM 41.0 °F 39.0 °F 28.4 °F 61% 30.11 in 10.0 mi WNW 3.5 mph - N/A   Mostly Cloudy
12:58 PM 41.2 °F 38.2 °F 29.1 °F 62% 30.13 in 10.0 mi Variable 4.6 mph - 0.00 in   Partly Cloudy
1:58 PM 42.6 °F - 29.7 °F 60% 30.10 in 10.0 mi Calm Calm - N/A   Clear
2:58 PM 45.3 °F 43.0 °F 30.2 °F 56% 30.09 in 10.0 mi West 4.6 mph - N/A   Mostly Cloudy
3:12 PM 46.4 °F 45.2 °F 32.0 °F 57% 30.06 in 10.0 mi North 3.5 mph - N/A Rain Light Rain
3:29 PM 46.4 °F 44.3 °F 32.0 °F 57% 30.04 in 10.0 mi East 4.6 mph - N/A   Mostly Cloudy
3:58 PM 47.8 °F - 31.5 °F 53% 30.05 in 10.0 mi East 5.8 mph - 0.00 in   Overcast
4:58 PM 51.3 °F - 31.1 °F 46% 30.04 in 10.0 mi East 4.6 mph - N/A   Mostly Cloudy
5:58 PM 52.9 °F - 31.5 °F 44% 30.05 in 10.0 mi Calm Calm - N/A   Clear
6:58 PM 53.2 °F - 31.8 °F 44% 30.06 in 10.0 mi Variable 1.2 mph - N/A   Clear
7:58 PM 46.9 °F - 31.5 °F 55% 30.09 in 10.0 mi ESE 6.9 mph - N/A   Clear
8:58 PM 45.0 °F 41.8 °F 32.4 °F 61% 30.12 in 10.0 mi NNE 5.8 mph - N/A   Clear
9:58 PM 41.7 °F 39.8 °F 32.4 °F 69% 30.16 in 10.0 mi NNE 3.5 mph - N/A   Clear
10:58 PM 38.7 °F - 32.5 °F 79% 30.18 in 10.0 mi Calm Calm - N/A   Clear
11:58 PM 34.5 °F 27.9 °F 32.4 °F 92% 30.21 in 10.0 mi NNE 8.1 mph - N/A   Clear